World > North America > United States > Texas > Daingerfield  

Daingerfield, TX Hourly Weather Updates

Feedback E-mail the Weather

Quick Clicks

Daingerfield, TX Weather Maps

°F °C°F °C
Daingerfield Weather Map
UTC Time: 6/21/2024, 18:04
Your Time:

Daingerfield, TX Regional Weather

Expires:202406211900;;418963
ASUS44 KFWD 211803
RWRTX 
NORTH TEXAS HOURLY WEATHER ROUNDUP
NATIONAL WEATHER SERVICE FORT WORTH TX
100 PM CDT FRI JUN 21 2024

NOTE: "FAIR" INDICATES FEW OR NO CLOUDS BELOW 12,000 FEET WITH NO
SIGNIFICANT WEATHER AND/OR OBSTRUCTIONS TO VISIBILITY.


TXZ095>097-106>112-122>126-135>138-148>153-164>167-211900-
EAST TEXAS
  
CITY           SKY/WX    TMP DP  RH WIND       PRES   REMARKS
PARIS          FAIR     N/A N/A N/A E10       30.18F                  
SULPHUR SPRNGS PTSUNNY   89  67  46 NE7       30.19F HX  92           
6HR MIN TEMP:  73; 6HR MAX TEMP:  91;                                

MOUNT PLEASANT FAIR     N/A N/A N/A CALM      30.17F                  
6HR MIN TEMP:  72; 6HR MAX TEMP:  80;                                

GILMER         FAIR      89  63  41 E3        30.17F                  
6HR MIN TEMP:  73; 6HR MAX TEMP:  89;                                

MINEOLA        FAIR      90  72  55 N3        30.17F HX  96           
TYLER          FAIR      90  70  51 SE7       30.16F HX  95           
6HR MIN TEMP:  75; 6HR MAX TEMP:  91;                                

LONGVIEW       FAIR      90  69  50 VRB6      30.15F HX  94           
6HR MIN TEMP:  74; 6HR MAX TEMP:  90;                                

ATHENS         FAIR      88  70  55 E5        30.15F HX  92           
PALESTINE      FAIR     N/A N/A N/A NE9       30.14F                  
JACKSONVILLE   FAIR      87  69  54 SE3       30.19F HX  91           
6HR MIN TEMP:  72; 6HR MAX TEMP:  87;                                

HENDERSON      FAIR      94  70  45 SE5       30.18F HX 100           
6HR MIN TEMP:  76; 6HR MAX TEMP:  95;                                

CENTER         FAIR      88  68  51 E3        30.17F HX  91           
NACOGDOCHES    FAIR      90  69  50 E9        30.16F HX  94           
6HR MIN TEMP:  72; 6HR MAX TEMP:  91;                                

LUFKIN         FAIR      90  72  55 E8        30.15F HX  97           
6HR MIN TEMP:  75; 6HR MAX TEMP:  90;                                

$$

SUPPLEMENTAL OBSERVATIONS (NWS FORT WORTH AREA)
  
CITY           SKY/WX    TMP DP  RH WIND       PRES   REMARKS
MCGREGOR         N/A     88  73  62 E6G15       N/A  HX  96           
$$

SUPPLEMENTAL OBSERVATIONS (NWS NORMAN AREA)
  
CITY           SKY/WX    TMP DP  RH WIND       PRES   REMARKS
GOODLETT         N/A     88  67  49 S13       30.18  HX  91           
ODELL            N/A     89  71  55 S9        30.18F HX  95           
CROWELL          N/A     85  70  60 S9        30.19S HX  90           
KNOX CITY        N/A     89  67  49 S14       30.18  HX  92           
SEYMOUR          N/A     88  71  58 S7        30.17F HX  93           
$$

SUPPLEMENTAL OBSERVATIONS (NWS SAN ANGELO AREA)
  
CITY           SKY/WX    TMP DP  R

SKY/WX - Weather  TMP - Temperature  DP - Dew Point  RH - Humidity
WIND - Wind Direction/Speed PRES - Barometric Pressure VSB - Visibility
WCI - Wind Chill Index E13G22 Wind - East Wind 13 mph/Gusts of 22 mph

Trending Headlines

Trending Entertainment Headlines

Daingerfield Radar Loop

Use the map search tool if you want to place a location marker on the radar map...

Daingerfield Quick Facts

National Two Day Weather Forecast


E-mail the Daingerfield Weather Forecast

Voice your opinion or tell us about page issues...